Location: DaVinci Observatory
(43.1080°N, 78.6453°W)
Time: 16:53:10
(UTC-04:00)

Envisat - Pass Details

Date: 09 October 2017
Orbit: 764 x 766 km, 98.2° (Epoch: 17 October)

Event Time Altitude Azimuth Distance (km) Brightness Sun altitude
Exits shadow 20:04:27 26° 89° (E) 1,485 3.9 -16.0°
Maximum altitude 20:05:36 28° 66° (ENE) 1,400 3.9 -16.2°
Drops below altitude 10° 20:09:54 10° 8° (N) 2,311 5.5 -17.0°
Sets 20:12:28 0° 358° (N) 3,241 6.4 -17.4°
